Weather History for KFAR - February, 2013

Change the Weather History Date:

Tuesday, February 12, 2013

  Actual Average Record
Temperature  
Mean Temperature 21 °F 14 °F  
Max Temperature 30 °F 23 °F 43 °F (1935)
Min Temperature 11 °F 4 °F -30 °F (1905)
Degree Days  
Heating Degree Days 44 52  
Month to date heating degree days 612 639  
Since 1 July heating degree days 5745 5907  
Cooling Degree Days 0 0  
Month to date cooling degree days 0 0  
Year to date cooling degree days 0 0  
Moisture  
Dew Point 15 °F    
Average Humidity 76    
Maximum Humidity 84    
Minimum Humidity 68    
Precipitation  
Precipitation 0.00 in 0.01 in 0.63 in (1908)
Month to date precipitation 1.05 0.20  
Year to date precipitation 2.02 0.90  
Snow  
Snow 0.00 in 0.20 in 4.00 in (1908)
Month to date snowfall 12.2 2.7  
Since 1 July snowfall 34.9 33.7  
Snow Depth 14.00 in    
Sea Level Pressure  
Sea Level Pressure 29.85 in    
Wind  
Wind Speed 9 mph (SSW)    
Max Wind Speed 16 mph    
Max Gust Speed 20 mph    
Visibility 9 miles    
Events Snow    
T = Trace of Precipitation, MM = Missing Value Source: NWS Daily Summary

Daily Weather History Graph

Daily Weather History Graph

Search for Another Location

Airport or City:

Trip Planner

Search our weather history database for the weather conditions in past years. The results will help you decide how hot, cold, wet, or windy it might be!

Date:

Astronomy

Feb. 12, 2013 Rise Set
Actual Time 7:35 AM CST 5:47 PM CST
Civil Twilight 7:04 AM CST 6:19 PM CST
Nautical Twilight 6:28 AM CST 6:55 PM CST
Astronomical Twilight 5:53 AM CST 7:30 PM CST
Moon 8:20 AM CST (2/12) 9:05 PM CST (2/12)
Length of Visible Light 11h 14m
Length of Day
10h 11m
Waxing Crescent, 7% of the Moon is Illuminated
Feb 12
Waxing Crescent
Feb 17
First Quarter
Feb 25
Full
Mar 4
Last Quarter
Mar 11
New

Hourly Weather History & Observations

Time (CST) Temp. Windchill Dew Point Humidity Pressure Visibility Wind Dir Wind Speed Gust Speed Precip Events Conditions
12:18 AM 17.6 °F 6.4 °F 12.2 °F 79% 29.92 in 10.0 mi South 9.2 mph - 0.00 in   Scattered Clouds
12:53 AM 18.0 °F 5.4 °F 12.0 °F 78% 29.96 in 10.0 mi South 11.5 mph - 0.00 in   Clear
1:53 AM 19.0 °F 6.1 °F 12.9 °F 77% 29.92 in 10.0 mi South 12.7 mph - 0.00 in   Clear
2:53 AM 19.0 °F 5.0 °F 12.9 °F 77% 29.89 in 10.0 mi South 15.0 mph - 0.00 in   Scattered Clouds
3:53 AM 19.0 °F 6.8 °F 12.9 °F 77% 29.87 in 10.0 mi South 11.5 mph - 0.00 in   Overcast
4:53 AM 18.0 °F 4.2 °F 12.0 °F 78% 29.86 in 10.0 mi South 13.8 mph - 0.00 in   Scattered Clouds
5:53 AM 15.8 °F 2.7 °F 10.4 °F 79% 29.81 in 9.0 mi South 11.5 mph - N/A   Clear
6:53 AM 12.9 °F -0.2 °F 8.1 °F 81% 29.87 in 10.0 mi South 10.4 mph - N/A   Clear
7:53 AM 12.0 °F 0.5 °F 7.0 °F 80% 29.87 in 10.0 mi South 8.1 mph - N/A   Clear
8:53 AM 12.9 °F 2.6 °F 8.1 °F 81% 29.87 in 10.0 mi SSW 6.9 mph - N/A   Clear
9:53 AM 16.0 °F 6.3 °F 10.0 °F 77% 29.87 in 10.0 mi South 6.9 mph - N/A   Clear
10:53 AM 19.9 °F 10.1 °F 12.9 °F 74% 29.86 in 10.0 mi SW 8.1 mph - N/A   Clear
11:53 AM 21.9 °F 11.0 °F 14.0 °F 72% 29.88 in 10.0 mi West 10.4 mph - N/A   Clear
12:53 PM 24.1 °F 17.0 °F 16.0 °F 71% 29.87 in 10.0 mi WSW 5.8 mph - N/A   Clear
1:50 PM 24.8 °F 16.9 °F 19.4 °F 80% 29.79 in 0.5 mi SW 6.9 mph - 0.00 in Snow Snow
1:53 PM 27.0 °F 18.7 °F 19.0 °F 72% 29.84 in 0.2 mi WSW 8.1 mph - 0.02 in Snow Heavy Snow
2:02 PM 26.6 °F 16.8 °F 17.6 °F 69% 29.80 in 1.8 mi WSW 10.4 mph - 0.02 in   Haze
2:09 PM 26.6 °F 18.2 °F 17.6 °F 69% 29.80 in 10.0 mi WSW 8.1 mph - 0.02 in   Partly Cloudy
2:53 PM 27.0 °F 18.0 °F 19.0 °F 72% 29.83 in 10.0 mi SW 9.2 mph - 0.02 in   Clear
3:53 PM 28.9 °F 21.1 °F 21.0 °F 72% 29.84 in 10.0 mi SW 8.1 mph - N/A   Mostly Cloudy
4:53 PM 30.0 °F 23.2 °F 21.9 °F 72% 29.83 in 10.0 mi SW 6.9 mph - N/A   Overcast
5:53 PM 27.0 °F 20.5 °F 21.0 °F 78% 29.84 in 10.0 mi WSW 5.8 mph - N/A   Partly Cloudy
6:53 PM 24.1 °F 15.2 °F 18.0 °F 77% 29.85 in 10.0 mi SW 8.1 mph - N/A   Scattered Clouds
7:53 PM 26.1 °F 16.8 °F 19.9 °F 78% 29.84 in 10.0 mi SW 9.2 mph - N/A   Mostly Cloudy
8:53 PM 24.1 °F 17.0 °F 19.0 °F 81% 29.83 in 10.0 mi SSW 5.8 mph - N/A   Overcast
9:53 PM 21.9 °F 15.7 °F 18.0 °F 85% 29.82 in 10.0 mi SW 4.6 mph - N/A   Overcast
10:53 PM 24.1 °F 15.2 °F 19.0 °F 81% 29.80 in 10.0 mi SSW 8.1 mph - N/A   Overcast
11:53 PM 25.0 °F 18.1 °F 19.0 °F 78% 29.79 in 10.0 mi SSW 5.8 mph - N/A   Overcast